Location: Newark
(7.0858°N, 171.3717°E)
Time: 12:13:32
(UTC+00:00)

Vanguard 1 Rocket - Pass Details

Date: 30 November 2020
Orbit: 655 x 4222 km, 34.3° (Epoch: 23 January)

Event Time Altitude Azimuth Distance (km) Brightness Sun altitude
Rises 10:16:31 0° 229° (SW) 6,139 12.1 -56.1°
Reaches altitude 10° 10:19:51 10° 228° (SW) 5,496 11.7 -56.8°
Enters shadow 10:33:31 64° 215° (SW) 3,895 10.3 -59.7°
